Regional Weather Roundup
Issued by NWS Jackson, KY

Home | Current Version | Previous Version | Text Only | Print | Product List | Glossary Off
Versions: 1 2 3 4 5 6 7 8 9 10 11 12 13 14 15 16 17 18 19 20 21 22 23 24 25 26 27 28 29 30 31 32 33 34 35 36 37 38 39 40 41 42 43 44 45 46 47 48 49 50

000
ASUS43 KJKL 261210
RWRJKL

EAST KENTUCKY HOURLY WEATHER ROUNDUP
NATIONAL WEATHER SERVICE JACKSON KY
800 AM EDT THU MAR 26 2015

NOTE: "FAIR" INDICATES FEW OR NO CLOUDS BELOW 12,000 FEET WITH
NO SIGNIFICANT WEATHER AND/OR OBSTRUCTIONS TO VISIBILITY.

* THESE REPORTS ARE NOT UNDER NWS QUALITY CONTROL AND MAY NOT
  REPORT WEATHER SUCH AS PRECIPITATION AND FOG.

KYZ079-080-083-085-087-088-110-112-115-119-120-261300
...EASTERN KENTUCKY...

CITY           SKY/WX    TMP DP  RH WIND       PRES   REMARKS
JACKSON        MOCLDY    61  50  67 S6        29.84F
6HR MIN TEMP:  59; 6HR MAX TEMP:  64;

LONDON         CLOUDY    62  50  64 S6        29.86S
6HR MIN TEMP:  56; 6HR MAX TEMP:  62;

SOMERSET*      CLOUDY    61  54  77 SW7       29.87R
MONTICELLO*    CLOUDY    63  57  82 SW14G21   29.89R HAZE
6HR MIN TEMP:  62; 6HR MAX TEMP:  66;

MIDDLESBORO*   MOCLDY    62  55  79 S15       29.90F
6HR MIN TEMP:  53; 6HR MAX TEMP:  64;

HAZARD APT*    MOSUNNY   63  52  67 S10G17    29.86S
BLACK MTN*       N/A     50  50 100 SW7         N/A
PIKEVILLE APT* PTCLDY    61  52  72 S12       29.87S
BIG SANDY*     CLOUDY    62  52  71 S8        29.86R
6HR MIN TEMP:  56; 6HR MAX TEMP:  63;

MOREHEAD APT*  CLOUDY    63  52  67 SW12G20   29.83R
$$

KYZ035-036-041-042-044-050-067-078-099-261300
...CENTRAL KENTUCKY...

CITY           SKY/WX    TMP DP  RH WIND       PRES   REMARKS
MT STERLING*   HVY RAIN  59  55  88 W9        29.84R
FLEMING/MASON* RAIN      50  48  93 CALM      29.83R
DANVILLE*      LGT RAIN  57  55  94 SW10      29.84S
RICHMOND*      CLOUDY    61  54  77 SW8G17    29.84R
LEXINGTON      CLOUDY    54  53  97 CALM      29.81F FOG
6HR MIN TEMP:  54; 6HR MAX TEMP:  62; 6HR PCP:  0.12;

FRANKFORT      RAIN      50  48  93 N5        29.82R FOG
6HR MIN TEMP:  50; 6HR MAX TEMP:  60; 6HR PCP:  0.20;

$$

KYZ091>093-OHZ055-061-077-WVZ005-015-034-035-042-261300
...SOUTHERN OHIO/WEST VIRGINIA...

CITY           SKY/WX    TMP DP  RH WIND       PRES   REMARKS
COVINGTON      RAIN      46  45  96 N10       29.85R FOG
COLUMBUS       RAIN      43  43 100 N8        29.81F FOG
DAYTON         LGT RAIN  43  41  93 N13       29.86F FOG
WILMINGTON     LGT RAIN  44  42  93 NE14G21   29.83F FOG
HUNTINGTON     CLOUDY    58  50  75 SW7       29.80F
CHARLESTON     MOCLDY    62  51  67 S7        29.82F
PINEVILLE*     MOCLDY    54  53  97 MISG      29.94S
BECKLEY        CLOUDY    57  49  74 S8        29.91S
BLUEFIELD      PTCLDY    58  49  72 S5        29.94S
$$

VAZ002-007-008-TNZ017-027-036-066-071-261300
...SOUTHWEST VIRGINIA/EAST TENNESSEE...

CITY           SKY/WX    TMP DP  RH WIND       PRES   REMARKS
WISE*          PTCLDY    55  50  82 S9        29.94R
JONESVILLE*    CLOUDY    54  54 100 CALM      29.95R
ABINGDON*      PTCLDY    55  52  88 NW3       29.93S
BRISTOL        MOCLDY    55  52  89 N3        29.92F
KNOXVILLE      MOCLDY    62  54  74 SW9       29.93R
OAK RIDGE      CLOUDY    63  56  78 VRB5      29.94R
CROSSVILLE     CLOUDY    61  55  81 S9G17     29.93S
NASHVILLE      MOCLDY    61  54  77 S12       29.87R
$$

...KEY TO REMARKS...
VSB - VISIBILITY IN MILES
WCI - WIND CHILL INDEX
HX  - HEAT INDEX

$$



USA.gov is the U.S. government's official web portal to all federal, state and local government web resources and services.